owner,sensor,date,latitude,longitude,air_pressure(mBar),qcFlag 
LOOP,urn:ioos:station:wmo:lopl1:1,2017-11-01T00:50:00Z,28.8850,-90.0250,1018.1,1111122 
LOOP,urn:ioos:station:wmo:lopl1:1,2017-11-01T01:50:00Z,28.8850,-90.0250,1019.1,1111122 
LOOP,urn:ioos:station:wmo:lopl1:1,2017-11-01T02:50:00Z,28.8850,-90.0250,1019.1,11111222 
LOOP,urn:ioos:station:wmo:lopl1:1,2017-11-01T03:50:00Z,28.8850,-90.0250,1019.1,1111122 
LOOP,urn:ioos:station:wmo:lopl1:1,2017-11-01T04:50:00Z,28.8850,-90.0250,1018.1,1111122 
LOOP,urn:ioos:station:wmo:lopl1:1,2017-11-01T05:50:00Z,28.8850,-90.0250,1018.1,1111122 
LOOP,urn:ioos:station:wmo:lopl1:1,2017-11-01T06:55:00Z,28.8850,-90.0250,1018.1,1111122 
LOOP,urn:ioos:station:wmo:lopl1:1,2017-11-01T07:55:00Z,28.8850,-90.0250,1017.1,1111122 
LOOP,urn:ioos:station:wmo:lopl1:1,2017-11-01T08:55:00Z,28.8850,-90.0250,1017.1,1111122 
LOOP,urn:ioos:station:wmo:lopl1:1,2017-11-01T09:55:00Z,28.8850,-90.0250,1017.1,1111122 
LOOP,urn:ioos:station:wmo:lopl1:1,2017-11-01T10:55:00Z,28.8850,-90.0250,1017.1,1111122 
LOOP,urn:ioos:station:wmo:lopl1:1,2017-11-01T11:55:00Z,28.8850,-90.0250,1017.1,1111122 
LOOP,urn:ioos:station:wmo:lopl1:1,2017-11-01T12:55:00Z,28.8850,-90.0250,1017.1,1111122 
LOOP,urn:ioos:station:wmo:lopl1:1,2017-11-01T13:55:00Z,28.8850,-90.0250,1018.1,1111122 
LOOP,urn:ioos:station:wmo:lopl1:1,2017-11-01T14:55:00Z,28.8850,-90.0250,1018.1,1111122 
LOOP,urn:ioos:station:wmo:lopl1:1,2017-11-01T15:55:00Z,28.8850,-90.0250,1018.1,1111122 
LOOP,urn:ioos:station:wmo:lopl1:1,2017-11-01T16:55:00Z,28.8850,-90.0250,1018.1,1111122 
LOOP,urn:ioos:station:wmo:lopl1:1,2017-11-01T17:55:00Z,28.8850,-90.0250,1017.1,1111122 
LOOP,urn:ioos:station:wmo:lopl1:1,2017-11-01T18:55:00Z,28.8850,-90.0250,1016.1,1111122 
LOOP,urn:ioos:station:wmo:lopl1:1,2017-11-01T19:55:00Z,28.8850,-90.0250,1016.1,1111122 
LOOP,urn:ioos:station:wmo:lopl1:1,2017-11-01T20:55:00Z,28.8850,-90.0250,1016.1,1111122 
LOOP,urn:ioos:station:wmo:lopl1:1,2017-11-01T21:55:00Z,28.8850,-90.0250,1016.1,1111122 
LOOP,urn:ioos:station:wmo:lopl1:1,2017-11-01T22:55:00Z,28.8850,-90.0250,1016.1,1111122 
LOOP,urn:ioos:station:wmo:lopl1:1,2017-11-01T23:55:00Z,28.8850,-90.0250,1016.1,1111122 
LOOP,urn:ioos:station:wmo:lopl1:1,2017-11-02T00:55:00Z,28.8850,-90.0250,1017.1,1111122 
LOOP,urn:ioos:station:wmo:lopl1:1,2017-11-02T01:55:00Z,28.8850,-90.0250,1017.1,1111122 
LOOP,urn:ioos:station:wmo:lopl1:1,2017-11-02T02:55:00Z,28.8850,-90.0250,1018.1,1111122 
LOOP,urn:ioos:station:wmo:lopl1:1,2017-11-02T03:55:00Z,28.8850,-90.0250,1018.1,1111122 
LOOP,urn:ioos:station:wmo:lopl1:1,2017-11-02T04:55:00Z,28.8850,-90.0250,1018.1,1111122 
LOOP,urn:ioos:station:wmo:lopl1:1,2017-11-02T05:55:00Z,28.8850,-90.0250,1018.1,1111122 
LOOP,urn:ioos:station:wmo:lopl1:1,2017-11-02T06:55:00Z,28.8850,-90.0250,1017.1,1111122 
LOOP,urn:ioos:station:wmo:lopl1:1,2017-11-02T07:55:00Z,28.8850,-90.0250,1017.1,1111122 
LOOP,urn:ioos:station:wmo:lopl1:1,2017-11-02T08:55:00Z,28.8850,-90.0250,1017.1,1111122 
LOOP,urn:ioos:station:wmo:lopl1:1,2017-11-02T09:55:00Z,28.8850,-90.0250,1018.1,1111122 
LOOP,urn:ioos:station:wmo:lopl1:1,2017-11-02T10:55:00Z,28.8850,-90.0250,1018.1,1111122 
LOOP,urn:ioos:station:wmo:lopl1:1,2017-11-02T11:55:00Z,28.8850,-90.0250,1019.1,1111122 
LOOP,urn:ioos:station:wmo:lopl1:1,2017-11-02T12:55:00Z,28.8850,-90.0250,1019.1,1111122 
LOOP,urn:ioos:station:wmo:lopl1:1,2017-11-02T14:00:00Z,28.8850,-90.0250,1020.1,1111122 
LOOP,urn:ioos:station:wmo:lopl1:1,2017-11-02T15:00:00Z,28.8850,-90.0250,1020.1,1111122 
LOOP,urn:ioos:station:wmo:lopl1:1,2017-11-02T16:00:00Z,28.8850,-90.0250,1021.1,1111122 
LOOP,urn:ioos:station:wmo:lopl1:1,2017-11-02T17:00:00Z,28.8850,-90.0250,1021.1,1111122 
LOOP,urn:ioos:station:wmo:lopl1:1,2017-11-02T18:00:00Z,28.8850,-90.0250,1020.1,1111122 
LOOP,urn:ioos:station:wmo:lopl1:1,2017-11-02T19:00:00Z,28.8850,-90.0250,1019.1,1111122 
LOOP,urn:ioos:station:wmo:lopl1:1,2017-11-02T20:00:00Z,28.8850,-90.0250,1019.1,1111122 
LOOP,urn:ioos:station:wmo:lopl1:1,2017-11-02T21:00:00Z,28.8850,-90.0250,1019.1,1111122 
LOOP,urn:ioos:station:wmo:lopl1:1,2017-11-02T22:00:00Z,28.8850,-90.0250,1019.1,1111122 
LOOP,urn:ioos:station:wmo:lopl1:1,2017-11-02T23:00:00Z,28.8850,-90.0250,1019.1,1111122 
LOOP,urn:ioos:station:wmo:lopl1:1,2017-11-03T00:00:00Z,28.8850,-90.0250,1020.1,1111122 
LOOP,urn:ioos:station:wmo:lopl1:1,2017-11-03T01:00:00Z,28.8850,-90.0250,1020.1,1111122 
LOOP,urn:ioos:station:wmo:lopl1:1,2017-11-03T02:00:00Z,28.8850,-90.0250,1020.1,1111122 
LOOP,urn:ioos:station:wmo:lopl1:1,2017-11-03T03:00:00Z,28.8850,-90.0250,1021.1,1111122 
LOOP,urn:ioos:station:wmo:lopl1:1,2017-11-03T04:00:00Z,28.8850,-90.0250,1020.1,1111122 
LOOP,urn:ioos:station:wmo:lopl1:1,2017-11-03T05:00:00Z,28.8850,-90.0250,1020.1,1111122 
LOOP,urn:ioos:station:wmo:lopl1:1,2017-11-03T06:00:00Z,28.8850,-90.0250,1020.1,1111122 
LOOP,urn:ioos:station:wmo:lopl1:1,2017-11-03T07:00:00Z,28.8850,-90.0250,1020.1,1111122 
LOOP,urn:ioos:station:wmo:lopl1:1,2017-11-03T08:00:00Z,28.8850,-90.0250,1020.1,1111122 
LOOP,urn:ioos:station:wmo:lopl1:1,2017-11-03T09:00:00Z,28.8850,-90.0250,1019.1,1111122 
LOOP,urn:ioos:station:wmo:lopl1:1,2017-11-03T10:00:00Z,28.8850,-90.0250,1020.1,1111122 
LOOP,urn:ioos:station:wmo:lopl1:1,2017-11-03T11:00:00Z,28.8850,-90.0250,1020.1,1111122 
LOOP,urn:ioos:station:wmo:lopl1:1,2017-11-03T12:00:00Z,28.8850,-90.0250,1021.1,1111122 
LOOP,urn:ioos:station:wmo:lopl1:1,2017-11-03T13:00:00Z,28.8850,-90.0250,1021.1,1111122 
LOOP,urn:ioos:station:wmo:lopl1:1,2017-11-03T14:00:00Z,28.8850,-90.0250,1021.1,1111122 
LOOP,urn:ioos:station:wmo:lopl1:1,2017-11-03T15:00:00Z,28.8850,-90.0250,1021.1,1111122 
LOOP,urn:ioos:station:wmo:lopl1:1,2017-11-03T16:00:00Z,28.8850,-90.0250,1022.1,1111122 
LOOP,urn:ioos:station:wmo:lopl1:1,2017-11-03T17:05:00Z,28.8850,-90.0250,1021.1,1111122 
LOOP,urn:ioos:station:wmo:lopl1:1,2017-11-03T18:05:00Z,28.8850,-90.0250,1020.1,1111122 
LOOP,urn:ioos:station:wmo:lopl1:1,2017-11-03T19:05:00Z,28.8850,-90.0250,1020.1,1111122 
LOOP,urn:ioos:station:wmo:lopl1:1,2017-11-03T20:05:00Z,28.8850,-90.0250,1019.1,1111122 
LOOP,urn:ioos:station:wmo:lopl1:1,2017-11-03T21:05:00Z,28.8850,-90.0250,1019.1,1111122 
LOOP,urn:ioos:station:wmo:lopl1:1,2017-11-03T22:05:00Z,28.8850,-90.0250,1019.1,1111122 
LOOP,urn:ioos:station:wmo:lopl1:1,2017-11-03T23:05:00Z,28.8850,-90.0250,1019.1,1111122 
LOOP,urn:ioos:station:wmo:lopl1:1,2017-11-04T00:05:00Z,28.8850,-90.0250,1020.1,1111122 
LOOP,urn:ioos:station:wmo:lopl1:1,2017-11-04T01:05:00Z,28.8850,-90.0250,1020.1,1111122 
LOOP,urn:ioos:station:wmo:lopl1:1,2017-11-04T02:05:00Z,28.8850,-90.0250,1020.1,1111122 
LOOP,urn:ioos:station:wmo:lopl1:1,2017-11-04T03:05:00Z,28.8850,-90.0250,1020.1,1111122 
LOOP,urn:ioos:station:wmo:lopl1:1,2017-11-04T04:05:00Z,28.8850,-90.0250,1020.1,1111122 
LOOP,urn:ioos:station:wmo:lopl1:1,2017-11-04T05:05:00Z,28.8850,-90.0250,1019.1,1111122 
LOOP,urn:ioos:station:wmo:lopl1:1,2017-11-04T06:05:00Z,28.8850,-90.0250,1019.1,1111122 
LOOP,urn:ioos:station:wmo:lopl1:1,2017-11-04T07:05:00Z,28.8850,-90.0250,1019.1,1111122 
LOOP,urn:ioos:station:wmo:lopl1:1,2017-11-04T08:05:00Z,28.8850,-90.0250,1019.1,1111122 
LOOP,urn:ioos:station:wmo:lopl1:1,2017-11-04T09:05:00Z,28.8850,-90.0250,1019.1,1111122 
LOOP,urn:ioos:station:wmo:lopl1:1,2017-11-04T10:05:00Z,28.8850,-90.0250,1019.1,1111122 
LOOP,urn:ioos:station:wmo:lopl1:1,2017-11-04T11:05:00Z,28.8850,-90.0250,1019.1,1111122 
LOOP,urn:ioos:station:wmo:lopl1:1,2017-11-04T12:05:00Z,28.8850,-90.0250,1019.1,1111122 
LOOP,urn:ioos:station:wmo:lopl1:1,2017-11-04T13:05:00Z,28.8850,-90.0250,1020.1,1111122 
LOOP,urn:ioos:station:wmo:lopl1:1,2017-11-04T14:05:00Z,28.8850,-90.0250,1020.1,1111122 
LOOP,urn:ioos:station:wmo:lopl1:1,2017-11-04T15:05:00Z,28.8850,-90.0250,1020.1,1111122 
LOOP,urn:ioos:station:wmo:lopl1:1,2017-11-04T16:05:00Z,28.8850,-90.0250,1020.1,1111122 
LOOP,urn:ioos:station:wmo:lopl1:1,2017-11-04T17:05:00Z,28.8850,-90.0250,1020.1,1111122 
LOOP,urn:ioos:station:wmo:lopl1:1,2017-11-04T18:05:00Z,28.8850,-90.0250,1019.1,1111122 
LOOP,urn:ioos:station:wmo:lopl1:1,2017-11-04T19:05:00Z,28.8850,-90.0250,1018.1,1111122 
LOOP,urn:ioos:station:wmo:lopl1:1,2017-11-04T20:05:00Z,28.8850,-90.0250,1018.1,1111122 
LOOP,urn:ioos:station:wmo:lopl1:1,2017-11-04T21:05:00Z,28.8850,-90.0250,1017.1,1111122 
LOOP,urn:ioos:station:wmo:lopl1:1,2017-11-04T22:05:00Z,28.8850,-90.0250,1017.1,1111122 
LOOP,urn:ioos:station:wmo:lopl1:1,2017-11-04T23:05:00Z,28.8850,-90.0250,1017.1,1111122 
LOOP,urn:ioos:station:wmo:lopl1:1,2017-11-05T00:05:00Z,28.8850,-90.0250,1018.1,1111122 
LOOP,urn:ioos:station:wmo:lopl1:1,2017-11-05T01:05:00Z,28.8850,-90.0250,1018.1,1111122 
LOOP,urn:ioos:station:wmo:lopl1:1,2017-11-05T02:10:00Z,28.8850,-90.0250,1019.1,1111122 
LOOP,urn:ioos:station:wmo:lopl1:1,2017-11-05T03:10:00Z,28.8850,-90.0250,1019.1,1111122 
LOOP,urn:ioos:station:wmo:lopl1:1,2017-11-05T04:10:00Z,28.8850,-90.0250,1019.1,1111122 
LOOP,urn:ioos:station:wmo:lopl1:1,2017-11-05T05:10:00Z,28.8850,-90.0250,1018.1,1111122 
LOOP,urn:ioos:station:wmo:lopl1:1,2017-11-05T06:10:00Z,28.8850,-90.0250,1018.1,1111122 
LOOP,urn:ioos:station:wmo:lopl1:1,2017-11-05T07:10:00Z,28.8850,-90.0250,1017.1,1111122 
LOOP,urn:ioos:station:wmo:lopl1:1,2017-11-05T08:10:00Z,28.8850,-90.0250,1017.1,1111122 
LOOP,urn:ioos:station:wmo:lopl1:1,2017-11-05T09:10:00Z,28.8850,-90.0250,1018.1,1111122 
LOOP,urn:ioos:station:wmo:lopl1:1,2017-11-05T10:10:00Z,28.8850,-90.0250,1018.1,1111122 
LOOP,urn:ioos:station:wmo:lopl1:1,2017-11-05T11:10:00Z,28.8850,-90.0250,1018.1,1111122 
LOOP,urn:ioos:station:wmo:lopl1:1,2017-11-05T12:10:00Z,28.8850,-90.0250,1018.1,1111122 
LOOP,urn:ioos:station:wmo:lopl1:1,2017-11-05T13:10:00Z,28.8850,-90.0250,1018.1,1111122 
LOOP,urn:ioos:station:wmo:lopl1:1,2017-11-05T14:10:00Z,28.8850,-90.0250,1019.1,1111122 
LOOP,urn:ioos:station:wmo:lopl1:1,2017-11-05T15:10:00Z,28.8850,-90.0250,1019.1,1111122 
LOOP,urn:ioos:station:wmo:lopl1:1,2017-11-05T16:10:00Z,28.8850,-90.0250,1019.1,1111122 
LOOP,urn:ioos:station:wmo:lopl1:1,2017-11-05T17:10:00Z,28.8850,-90.0250,1019.1,1111122 
LOOP,urn:ioos:station:wmo:lopl1:1,2017-11-05T18:10:00Z,28.8850,-90.0250,1018.1,1111122 
LOOP,urn:ioos:station:wmo:lopl1:1,2017-11-05T19:10:00Z,28.8850,-90.0250,1018.1,1111122 
LOOP,urn:ioos:station:wmo:lopl1:1,2017-11-05T20:10:00Z,28.8850,-90.0250,1017.1,1111122 
LOOP,urn:ioos:station:wmo:lopl1:1,2017-11-05T21:10:00Z,28.8850,-90.0250,1017.1,1111122 
LOOP,urn:ioos:station:wmo:lopl1:1,2017-11-05T22:10:00Z,28.8850,-90.0250,1017.1,1111122 
LOOP,urn:ioos:station:wmo:lopl1:1,2017-11-05T23:10:00Z,28.8850,-90.0250,1017.1,1111122 
LOOP,urn:ioos:station:wmo:lopl1:1,2017-11-06T00:10:00Z,28.8850,-90.0250,1018.1,1111122 
LOOP,urn:ioos:station:wmo:lopl1:1,2017-11-06T01:10:00Z,28.8850,-90.0250,1018.1,1111122 
LOOP,urn:ioos:station:wmo:lopl1:1,2017-11-06T02:10:00Z,28.8850,-90.0250,1018.1,1111122 
LOOP,urn:ioos:station:wmo:lopl1:1,2017-11-06T03:10:00Z,28.8850,-90.0250,1018.1,1111122 
LOOP,urn:ioos:station:wmo:lopl1:1,2017-11-06T04:10:00Z,28.8850,-90.0250,1019.1,1111122 
LOOP,urn:ioos:station:wmo:lopl1:1,2017-11-06T05:10:00Z,28.8850,-90.0250,1018.1,1111122 
LOOP,urn:ioos:station:wmo:lopl1:1,2017-11-06T06:10:00Z,28.8850,-90.0250,1018.1,1111122 
LOOP,urn:ioos:station:wmo:lopl1:1,2017-11-06T07:10:00Z,28.8850,-90.0250,1018.1,1111122 
LOOP,urn:ioos:station:wmo:lopl1:1,2017-11-06T08:10:00Z,28.8850,-90.0250,1018.1,1111122 
LOOP,urn:ioos:station:wmo:lopl1:1,2017-11-06T09:10:00Z,28.8850,-90.0250,1018.1,1111122 
LOOP,urn:ioos:station:wmo:lopl1:1,2017-11-06T10:10:00Z,28.8850,-90.0250,1018.1,1111122 
LOOP,urn:ioos:station:wmo:lopl1:1,2017-11-06T11:10:00Z,28.8850,-90.0250,1018.1,1111122 
LOOP,urn:ioos:station:wmo:lopl1:1,2017-11-06T12:10:00Z,28.8850,-90.0250,1018.1,1111122 
LOOP,urn:ioos:station:wmo:lopl1:1,2017-11-06T13:15:00Z,28.8850,-90.0250,1019.1,1111122 
LOOP,urn:ioos:station:wmo:lopl1:1,2017-11-06T14:15:00Z,28.8850,-90.0250,1019.1,1111122 
LOOP,urn:ioos:station:wmo:lopl1:1,2017-11-06T15:15:00Z,28.8850,-90.0250,1019.1,1111122 
LOOP,urn:ioos:station:wmo:lopl1:1,2017-11-06T16:15:00Z,28.8850,-90.0250,1019.1,1111122 
LOOP,urn:ioos:station:wmo:lopl1:1,2017-11-06T17:15:00Z,28.8850,-90.0250,1019.1,1111122 
LOOP,urn:ioos:station:wmo:lopl1:1,2017-11-06T18:15:00Z,28.8850,-90.0250,1019.1,1111122 
LOOP,urn:ioos:station:wmo:lopl1:1,2017-11-06T19:15:00Z,28.8850,-90.0250,1018.1,1111122 
LOOP,urn:ioos:station:wmo:lopl1:1,2017-11-06T20:15:00Z,28.8850,-90.0250,1018.1,1111122 
LOOP,urn:ioos:station:wmo:lopl1:1,2017-11-06T21:15:00Z,28.8850,-90.0250,1018.1,1111122 
LOOP,urn:ioos:station:wmo:lopl1:1,2017-11-06T22:15:00Z,28.8850,-90.0250,1018.1,1111122 
LOOP,urn:ioos:station:wmo:lopl1:1,2017-11-06T23:15:00Z,28.8850,-90.0250,1018.1,1111122 
LOOP,urn:ioos:station:wmo:lopl1:1,2017-11-07T00:15:00Z,28.8850,-90.0250,1018.1,1111122 
LOOP,urn:ioos:station:wmo:lopl1:1,2017-11-07T01:15:00Z,28.8850,-90.0250,1019.1,1111122 
LOOP,urn:ioos:station:wmo:lopl1:1,2017-11-07T02:15:00Z,28.8850,-90.0250,1019.1,1111122 
LOOP,urn:ioos:station:wmo:lopl1:1,2017-11-07T03:15:00Z,28.8850,-90.0250,1019.1,1111122 
LOOP,urn:ioos:station:wmo:lopl1:1,2017-11-07T04:15:00Z,28.8850,-90.0250,1019.1,1111122 
LOOP,urn:ioos:station:wmo:lopl1:1,2017-11-07T05:15:00Z,28.8850,-90.0250,1019.1,1111122 
LOOP,urn:ioos:station:wmo:lopl1:1,2017-11-07T06:15:00Z,28.8850,-90.0250,1019.1,1111122 
LOOP,urn:ioos:station:wmo:lopl1:1,2017-11-07T07:15:00Z,28.8850,-90.0250,1018.1,1111122 
LOOP,urn:ioos:station:wmo:lopl1:1,2017-11-07T08:15:00Z,28.8850,-90.0250,1018.1,1111122 
LOOP,urn:ioos:station:wmo:lopl1:1,2017-11-07T09:15:00Z,28.8850,-90.0250,1018.1,1111122 
LOOP,urn:ioos:station:wmo:lopl1:1,2017-11-07T10:15:00Z,28.8850,-90.0250,1018.1,1111122 
LOOP,urn:ioos:station:wmo:lopl1:1,2017-11-07T11:15:00Z,28.8850,-90.0250,1018.1,1111122 
LOOP,urn:ioos:station:wmo:lopl1:1,2017-11-07T12:15:00Z,28.8850,-90.0250,1019.1,1111122 
LOOP,urn:ioos:station:wmo:lopl1:1,2017-11-07T13:15:00Z,28.8850,-90.0250,1019.1,1111122 
LOOP,urn:ioos:station:wmo:lopl1:1,2017-11-07T14:15:00Z,28.8850,-90.0250,1019.1,1111122 
LOOP,urn:ioos:station:wmo:lopl1:1,2017-11-07T15:15:00Z,28.8850,-90.0250,1020.1,1111122 
LOOP,urn:ioos:station:wmo:lopl1:1,2017-11-07T16:15:00Z,28.8850,-90.0250,1019.1,1111122 
LOOP,urn:ioos:station:wmo:lopl1:1,2017-11-07T17:15:00Z,28.8850,-90.0250,1019.1,1111122 
LOOP,urn:ioos:station:wmo:lopl1:1,2017-11-07T18:15:00Z,28.8850,-90.0250,1018.1,1111122 
LOOP,urn:ioos:station:wmo:lopl1:1,2017-11-07T19:15:00Z,28.8850,-90.0250,1017.1,1111122 
LOOP,urn:ioos:station:wmo:lopl1:1,2017-11-07T20:15:00Z,28.8850,-90.0250,1017.1,1111122 
LOOP,urn:ioos:station:wmo:lopl1:1,2017-11-07T21:15:00Z,28.8850,-90.0250,1017.1,1111122 
LOOP,urn:ioos:station:wmo:lopl1:1,2017-11-07T22:15:00Z,28.8850,-90.0250,1017.1,1111122 
LOOP,urn:ioos:station:wmo:lopl1:1,2017-11-07T23:15:00Z,28.8850,-90.0250,1017.1,1111122 
LOOP,urn:ioos:station:wmo:lopl1:1,2017-11-08T00:20:00Z,28.8850,-90.0250,1018.1,1111122 
LOOP,urn:ioos:station:wmo:lopl1:1,2017-11-08T01:20:00Z,28.8850,-90.0250,1018.1,1111122 
LOOP,urn:ioos:station:wmo:lopl1:1,2017-11-08T02:20:00Z,28.8850,-90.0250,1018.1,1111122 
LOOP,urn:ioos:station:wmo:lopl1:1,2017-11-08T03:20:00Z,28.8850,-90.0250,1018.1,1111122 
LOOP,urn:ioos:station:wmo:lopl1:1,2017-11-08T04:20:00Z,28.8850,-90.0250,1018.1,11111222 
LOOP,urn:ioos:station:wmo:lopl1:1,2017-11-08T05:20:00Z,28.8850,-90.0250,1018.1,1111122 
LOOP,urn:ioos:station:wmo:lopl1:1,2017-11-08T06:20:00Z,28.8850,-90.0250,1018.1,1111122 
LOOP,urn:ioos:station:wmo:lopl1:1,2017-11-08T07:20:00Z,28.8850,-90.0250,1017.1,1111122 
LOOP,urn:ioos:station:wmo:lopl1:1,2017-11-08T08:20:00Z,28.8850,-90.0250,1017.1,1111122 
LOOP,urn:ioos:station:wmo:lopl1:1,2017-11-08T09:20:00Z,28.8850,-90.0250,1017.1,1111122 
LOOP,urn:ioos:station:wmo:lopl1:1,2017-11-08T10:20:00Z,28.8850,-90.0250,1017.1,1111122 
LOOP,urn:ioos:station:wmo:lopl1:1,2017-11-08T11:20:00Z,28.8850,-90.0250,1017.1,1111122 
LOOP,urn:ioos:station:wmo:lopl1:1,2017-11-08T12:20:00Z,28.8850,-90.0250,1018.1,1111122 
LOOP,urn:ioos:station:wmo:lopl1:1,2017-11-08T13:20:00Z,28.8850,-90.0250,1018.1,1111122 
LOOP,urn:ioos:station:wmo:lopl1:1,2017-11-08T14:20:00Z,28.8850,-90.0250,1018.1,1111122 
LOOP,urn:ioos:station:wmo:lopl1:1,2017-11-08T15:20:00Z,28.8850,-90.0250,1018.1,1111122 
LOOP,urn:ioos:station:wmo:lopl1:1,2017-11-08T16:20:00Z,28.8850,-90.0250,1017.1,1111122 
LOOP,urn:ioos:station:wmo:lopl1:1,2017-11-08T17:20:00Z,28.8850,-90.0250,1016.1,1111122 
LOOP,urn:ioos:station:wmo:lopl1:1,2017-11-08T18:20:00Z,28.8850,-90.0250,1016.1,1111122 
LOOP,urn:ioos:station:wmo:lopl1:1,2017-11-08T19:20:00Z,28.8850,-90.0250,1015.1,1111122 
LOOP,urn:ioos:station:wmo:lopl1:1,2017-11-08T20:20:00Z,28.8850,-90.0250,1016.1,1111122 
LOOP,urn:ioos:station:wmo:lopl1:1,2017-11-08T21:20:00Z,28.8850,-90.0250,1015.1,1111122 
LOOP,urn:ioos:station:wmo:lopl1:1,2017-11-08T22:20:00Z,28.8850,-90.0250,1016.1,1111122 
LOOP,urn:ioos:station:wmo:lopl1:1,2017-11-08T23:20:00Z,28.8850,-90.0250,1017.1,1111122 
LOOP,urn:ioos:station:wmo:lopl1:1,2017-11-09T00:20:00Z,28.8850,-90.0250,1017.1,1111122 
LOOP,urn:ioos:station:wmo:lopl1:1,2017-11-09T01:20:00Z,28.8850,-90.0250,1017.1,1111122 
LOOP,urn:ioos:station:wmo:lopl1:1,2017-11-09T02:20:00Z,28.8850,-90.0250,1017.1,1111122 
LOOP,urn:ioos:station:wmo:lopl1:1,2017-11-09T03:20:00Z,28.8850,-90.0250,1017.1,1111122 
LOOP,urn:ioos:station:wmo:lopl1:1,2017-11-09T04:20:00Z,28.8850,-90.0250,1017.1,1111122 
LOOP,urn:ioos:station:wmo:lopl1:1,2017-11-09T05:20:00Z,28.8850,-90.0250,1017.1,1111122 
LOOP,urn:ioos:station:wmo:lopl1:1,2017-11-09T06:25:00Z,28.8850,-90.0250,1017.1,1111122 
LOOP,urn:ioos:station:wmo:lopl1:1,2017-11-09T07:25:00Z,28.8850,-90.0250,1016.1,1111122 
LOOP,urn:ioos:station:wmo:lopl1:1,2017-11-09T08:25:00Z,28.8850,-90.0250,1017.1,1111122 
LOOP,urn:ioos:station:wmo:lopl1:1,2017-11-09T09:25:00Z,28.8850,-90.0250,1017.1,1111122 
LOOP,urn:ioos:station:wmo:lopl1:1,2017-11-09T10:25:00Z,28.8850,-90.0250,1017.1,1111122 
LOOP,urn:ioos:station:wmo:lopl1:1,2017-11-09T11:25:00Z,28.8850,-90.0250,1018.1,1111122 
LOOP,urn:ioos:station:wmo:lopl1:1,2017-11-09T12:25:00Z,28.8850,-90.0250,1018.1,1111122 
LOOP,urn:ioos:station:wmo:lopl1:1,2017-11-09T13:25:00Z,28.8850,-90.0250,1019.1,1111122 
LOOP,urn:ioos:station:wmo:lopl1:1,2017-11-09T14:25:00Z,28.8850,-90.0250,1019.1,1111122 
LOOP,urn:ioos:station:wmo:lopl1:1,2017-11-09T15:25:00Z,28.8850,-90.0250,1020.1,1111122 
LOOP,urn:ioos:station:wmo:lopl1:1,2017-11-09T16:25:00Z,28.8850,-90.0250,1019.1,1111122 
LOOP,urn:ioos:station:wmo:lopl1:1,2017-11-09T17:25:00Z,28.8850,-90.0250,1019.1,1111122 
LOOP,urn:ioos:station:wmo:lopl1:1,2017-11-09T18:25:00Z,28.8850,-90.0250,1019.1,1111122 
LOOP,urn:ioos:station:wmo:lopl1:1,2017-11-09T19:25:00Z,28.8850,-90.0250,1018.1,1111122 
LOOP,urn:ioos:station:wmo:lopl1:1,2017-11-09T20:25:00Z,28.8850,-90.0250,1018.1,1111122 
LOOP,urn:ioos:station:wmo:lopl1:1,2017-11-09T21:25:00Z,28.8850,-90.0250,1019.1,1111122 
LOOP,urn:ioos:station:wmo:lopl1:1,2017-11-09T22:25:00Z,28.8850,-90.0250,1019.1,1111122 
LOOP,urn:ioos:station:wmo:lopl1:1,2017-11-09T23:25:00Z,28.8850,-90.0250,1019.1,1111122 
LOOP,urn:ioos:station:wmo:lopl1:1,2017-11-10T00:25:00Z,28.8850,-90.0250,1020.1,1111122 
LOOP,urn:ioos:station:wmo:lopl1:1,2017-11-10T01:25:00Z,28.8850,-90.0250,1021.1,1111122 
LOOP,urn:ioos:station:wmo:lopl1:1,2017-11-10T02:25:00Z,28.8850,-90.0250,1021.1,1111122 
LOOP,urn:ioos:station:wmo:lopl1:1,2017-11-10T03:25:00Z,28.8850,-90.0250,1021.1,1111122 
LOOP,urn:ioos:station:wmo:lopl1:1,2017-11-10T04:25:00Z,28.8850,-90.0250,1021.1,1111122 
LOOP,urn:ioos:station:wmo:lopl1:1,2017-11-10T05:25:00Z,28.8850,-90.0250,1021.1,1111122 
LOOP,urn:ioos:station:wmo:lopl1:1,2017-11-10T06:25:00Z,28.8850,-90.0250,1021.1,1111122 
LOOP,urn:ioos:station:wmo:lopl1:1,2017-11-10T07:25:00Z,28.8850,-90.0250,1021.1,1111122 
LOOP,urn:ioos:station:wmo:lopl1:1,2017-11-10T08:25:00Z,28.8850,-90.0250,1020.1,1111122 
LOOP,urn:ioos:station:wmo:lopl1:1,2017-11-10T09:25:00Z,28.8850,-90.0250,1020.1,1111122 
LOOP,urn:ioos:station:wmo:lopl1:1,2017-11-10T10:25:00Z,28.8850,-90.0250,1020.1,1111122 
LOOP,urn:ioos:station:wmo:lopl1:1,2017-11-10T11:25:00Z,28.8850,-90.0250,1021.1,1111122 
LOOP,urn:ioos:station:wmo:lopl1:1,2017-11-10T12:25:00Z,28.8850,-90.0250,1021.1,1111122 
LOOP,urn:ioos:station:wmo:lopl1:1,2017-11-10T13:25:00Z,28.8850,-90.0250,1021.1,1111122 
LOOP,urn:ioos:station:wmo:lopl1:1,2017-11-10T14:25:00Z,28.8850,-90.0250,1022.1,1111122 
LOOP,urn:ioos:station:wmo:lopl1:1,2017-11-10T15:30:00Z,28.8850,-90.0250,1022.1,1111122 
LOOP,urn:ioos:station:wmo:lopl1:1,2017-11-10T16:30:00Z,28.8850,-90.0250,1022.1,1111122 
LOOP,urn:ioos:station:wmo:lopl1:1,2017-11-10T17:30:00Z,28.8850,-90.0250,1022.1,1111122 
LOOP,urn:ioos:station:wmo:lopl1:1,2017-11-10T18:30:00Z,28.8850,-90.0250,1021.1,1111122 
LOOP,urn:ioos:station:wmo:lopl1:1,2017-11-10T19:30:00Z,28.8850,-90.0250,1020.1,1111122 
LOOP,urn:ioos:station:wmo:lopl1:1,2017-11-10T20:30:00Z,28.8850,-90.0250,1020.1,1111122 
LOOP,urn:ioos:station:wmo:lopl1:1,2017-11-10T21:30:00Z,28.8850,-90.0250,1021.1,1111122 
LOOP,urn:ioos:station:wmo:lopl1:1,2017-11-10T22:30:00Z,28.8850,-90.0250,1021.1,1111122 
LOOP,urn:ioos:station:wmo:lopl1:1,2017-11-10T23:30:00Z,28.8850,-90.0250,1022.1,1111122 
LOOP,urn:ioos:station:wmo:lopl1:1,2017-11-11T00:30:00Z,28.8850,-90.0250,1022.1,1111122 
LOOP,urn:ioos:station:wmo:lopl1:1,2017-11-11T01:30:00Z,28.8850,-90.0250,1022.1,1111122 
LOOP,urn:ioos:station:wmo:lopl1:1,2017-11-11T02:30:00Z,28.8850,-90.0250,1022.1,1111122 
LOOP,urn:ioos:station:wmo:lopl1:1,2017-11-11T03:30:00Z,28.8850,-90.0250,1023.1,1111122 
LOOP,urn:ioos:station:wmo:lopl1:1,2017-11-11T04:30:00Z,28.8850,-90.0250,1022.1,1111122 
LOOP,urn:ioos:station:wmo:lopl1:1,2017-11-11T05:30:00Z,28.8850,-90.0250,1022.1,1111122 
LOOP,urn:ioos:station:wmo:lopl1:1,2017-11-11T06:30:00Z,28.8850,-90.0250,1021.1,1111122 
LOOP,urn:ioos:station:wmo:lopl1:1,2017-11-11T07:30:00Z,28.8850,-90.0250,1021.1,1111122 
LOOP,urn:ioos:station:wmo:lopl1:1,2017-11-11T08:30:00Z,28.8850,-90.0250,1021.1,1111122 
LOOP,urn:ioos:station:wmo:lopl1:1,2017-11-11T09:30:00Z,28.8850,-90.0250,1021.1,1111122 
LOOP,urn:ioos:station:wmo:lopl1:1,2017-11-11T10:30:00Z,28.8850,-90.0250,1021.1,1111122 
LOOP,urn:ioos:station:wmo:lopl1:1,2017-11-11T11:30:00Z,28.8850,-90.0250,1020.1,1111122 
LOOP,urn:ioos:station:wmo:lopl1:1,2017-11-11T12:30:00Z,28.8850,-90.0250,1021.1,1111122 
LOOP,urn:ioos:station:wmo:lopl1:1,2017-11-11T13:30:00Z,28.8850,-90.0250,1021.1,1111122 
LOOP,urn:ioos:station:wmo:lopl1:1,2017-11-11T14:30:00Z,28.8850,-90.0250,1021.1,1111122 
LOOP,urn:ioos:station:wmo:lopl1:1,2017-11-11T15:30:00Z,28.8850,-90.0250,1022.1,1111122 
LOOP,urn:ioos:station:wmo:lopl1:1,2017-11-11T16:30:00Z,28.8850,-90.0250,1022.1,1111122 
LOOP,urn:ioos:station:wmo:lopl1:1,2017-11-11T17:30:00Z,28.8850,-90.0250,1021.1,1111122 
LOOP,urn:ioos:station:wmo:lopl1:1,2017-11-11T18:30:00Z,28.8850,-90.0250,1020.1,1111122 
LOOP,urn:ioos:station:wmo:lopl1:1,2017-11-11T19:30:00Z,28.8850,-90.0250,1019.1,1111122 
LOOP,urn:ioos:station:wmo:lopl1:1,2017-11-11T20:30:00Z,28.8850,-90.0250,1019.1,1111122 
LOOP,urn:ioos:station:wmo:lopl1:1,2017-11-11T21:35:00Z,28.8850,-90.0250,1019.1,1111122 
LOOP,urn:ioos:station:wmo:lopl1:1,2017-11-11T22:35:00Z,28.8850,-90.0250,1019.1,1111122 
LOOP,urn:ioos:station:wmo:lopl1:1,2017-11-11T23:35:00Z,28.8850,-90.0250,1020.1,1111122 
LOOP,urn:ioos:station:wmo:lopl1:1,2017-11-12T00:35:00Z,28.8850,-90.0250,1020.1,1111122 
LOOP,urn:ioos:station:wmo:lopl1:1,2017-11-12T01:35:00Z,28.8850,-90.0250,1020.1,1111122 
LOOP,urn:ioos:station:wmo:lopl1:1,2017-11-12T02:35:00Z,28.8850,-90.0250,1020.1,1111122 
LOOP,urn:ioos:station:wmo:lopl1:1,2017-11-12T03:35:00Z,28.8850,-90.0250,1020.1,1111122 
LOOP,urn:ioos:station:wmo:lopl1:1,2017-11-12T04:35:00Z,28.8850,-90.0250,1019.1,1111122 
LOOP,urn:ioos:station:wmo:lopl1:1,2017-11-12T05:35:00Z,28.8850,-90.0250,1019.1,1111122 
LOOP,urn:ioos:station:wmo:lopl1:1,2017-11-12T06:35:00Z,28.8850,-90.0250,1019.1,1111122 
LOOP,urn:ioos:station:wmo:lopl1:1,2017-11-12T07:35:00Z,28.8850,-90.0250,1019.1,1111122 